Total_Precipitation_Accumulation
0.02 0.04 0.11 0.13 0.13 0.14 0.14 0.13 0.14 0.15 0.15 0.13 0.11 0.11 0.10 0.10 0.14 0.19 0.20 0.14 0.11 0.10 0.11 0.19 0.24 0.18 0.20 0.26 0.29 0.34 0.40 0.41 0.33 0.26 0.25 0.26 0.23 0.25 0.33 0.41 0.46 0.50 0.31
0.00 0.02 0.11 0.15 0.15 0.15 0.14 0.12 0.14 0.15 0.12 0.10 0.10 0.10 0.10 0.12 0.17 0.17 0.14 0.09 0.07 0.07 0.10 0.19 0.25 0.22 0.23 0.30 0.41 0.49 0.53 0.47 0.38 0.28 0.32 0.34 0.29 0.29 0.34 0.39 0.52 0.49 0.30
0.00 0.01 0.06 0.13 0.14 0.13 0.12 0.11 0.18 0.18 0.11 0.10 0.11 0.10 0.08 0.08 0.09 0.09 0.09 0.07 0.05 0.05 0.07 0.16 0.24 0.24 0.25 0.35 0.46 0.49 0.50 0.48 0.39 0.33 0.57 0.97 0.69 0.39 0.36 0.45 0.47 0.34 0.29
0.00 0.01 0.03 0.09 0.16 0.15 0.13 0.15 0.29 0.27 0.18 0.13 0.11 0.10 0.06 0.05 0.10 0.17 0.17 0.07 0.05 0.05 0.06 0.13 0.21 0.21 0.25 0.35 0.40 0.38 0.39 0.37 0.40 0.51 0.94 1.22 1.02 0.60 0.57 0.57 0.49 0.38 0.32
0.00 0.02 0.13 0.18 0.16 0.14 0.17 0.26 0.39 0.35 0.28 0.19 0.10 0.07 0.05 0.05 0.08 0.16 0.11 0.07 0.03 0.04 0.06 0.12 0.19 0.19 0.20 0.25 0.29 0.29 0.36 0.47 0.59 0.69 0.93 0.99 0.94 0.72 0.66 0.61 0.56 0.42 0.37
0.02 0.04 0.13 0.21 0.18 0.17 0.24 0.36 0.38 0.40 0.44 0.28 0.12 0.07 0.08 0.08 0.10 0.13 0.11 0.06 0.03 0.03 0.04 0.07 0.12 0.18 0.19 0.22 0.24 0.29 0.40 0.57 0.67 0.76 0.88 0.88 0.79 0.62 0.57 0.57 0.56 0.52 0.45
0.09 0.10 0.14 0.26 0.24 0.25 0.33 0.39 0.36 0.40 0.44 0.31 0.13 0.12 0.13 0.08 0.08 0.11 0.13 0.06 0.03 0.02 0.02 0.04 0.08 0.12 0.17 0.22 0.23 0.28 0.35 0.38 0.49 0.66 0.88 0.90 0.64 0.45 0.47 0.51 0.52 0.52 0.50
0.28 0.22 0.22 0.31 0.31 0.33 0.39 0.46 0.39 0.38 0.38 0.26 0.15 0.14 0.11 0.09 0.09 0.11 0.09 0.04 0.01 0.01 0.01 0.02 0.08 0.11 0.13 0.18 0.22 0.29 0.30 0.28 0.36 0.41 0.48 0.69 0.64 0.48 0.39 0.47 0.52 0.47 0.45
0.64 0.49 0.37 0.32 0.31 0.35 0.42 0.51 0.53 0.49 0.42 0.25 0.17 0.13 0.12 0.12 0.08 0.06 0.04 0.02 0.01 0.01 0.01 0.02 0.05 0.07 0.09 0.12 0.17 0.22 0.26 0.24 0.33 0.34 0.32 0.47 0.49 0.40 0.33 0.38 0.48 0.54 0.49
0.68 0.65 0.57 0.51 0.49 0.50 0.45 0.54 0.67 0.70 0.58 0.39 0.27 0.21 0.16 0.11 0.07 0.05 0.02 0.01 0.00 0.00 0.00 0.01 0.02 0.04 0.06 0.07 0.12 0.19 0.22 0.24 0.31 0.28 0.27 0.34 0.41 0.38 0.35 0.30 0.32 0.33 0.32
0.59 0.60 0.61 0.64 0.67 0.73 0.74 0.69 0.87 0.93 0.79 0.53 0.37 0.31 0.24 0.17 0.19 0.16 0.05 0.03 0.01 0.00 0.00 0.01 0.02 0.02 0.02 0.04 0.10 0.18 0.15 0.23 0.32 0.26 0.21 0.24 0.30 0.28 0.27 0.23 0.18 0.17 0.16
0.51 0.52 0.52 0.55 0.62 0.72 0.79 1.10 1.29 1.08 0.92 0.63 0.60 0.43 0.39 0.38 0.39 0.26 0.14 0.11 0.06 0.04 0.02 0.02 0.02 0.02 0.01 0.00 0.04 0.09 0.10 0.19 0.28 0.20 0.14 0.21 0.23 0.21 0.17 0.13 0.11 0.10 0.09
0.44 0.44 0.43 0.41 0.42 0.50 0.69 1.01 1.27 1.34 1.26 1.12 0.85 0.60 0.57 0.39 0.24 0.16 0.11 0.13 0.11 0.07 0.04 0.03 0.02 0.01 0.01 0.01 0.02 0.04 0.09 0.14 0.25 0.23 0.13 0.18 0.21 0.20 0.15 0.10 0.07 0.07 0.06
0.45 0.45 0.42 0.41 0.38 0.39 0.46 0.62 0.80 0.91 0.94 0.92 0.72 0.56 0.60 0.50 0.35 0.27 0.21 0.19 0.13 0.08 0.05 0.04 0.02 0.01 0.01 0.01 0.03 0.06 0.08 0.12 0.26 0.29 0.21 0.19 0.22 0.23 0.19 0.12 0.07 0.06 0.07
0.52 0.58 0.55 0.46 0.43 0.42 0.45 0.51 0.57 0.71 0.77 0.76 0.74 0.66 0.62 0.58 0.50 0.41 0.30 0.23 0.17 0.14 0.10 0.07 0.04 0.02 0.01 0.03 0.05 0.08 0.09 0.15 0.24 0.24 0.25 0.29 0.33 0.36 0.33 0.26 0.17 0.11 0.09
0.53 0.60 0.65 0.57 0.52 0.48 0.45 0.48 0.51 0.61 0.68 0.70 0.67 0.64 0.68 0.70 0.63 0.53 0.43 0.36 0.29 0.26 0.27 0.18 0.07 0.04 0.02 0.02 0.03 0.05 0.07 0.12 0.18 0.19 0.20 0.29 0.40 0.37 0.41 0.42 0.34 0.22 0.17
0.53 0.56 0.59 0.60 0.60 0.58 0.57 0.56 0.55 0.61 0.70 0.69 0.65 0.60 0.59 0.63 0.66 0.65 0.58 0.48 0.42 0.42 0.39 0.31 0.18 0.10 0.06 0.04 0.02 0.02 0.03 0.06 0.06 0.07 0.06 0.09 0.21 0.35 0.43 0.45 0.39 0.32 0.26
0.46 0.47 0.52 0.54 0.59 0.65 0.67 0.69 0.71 0.71 0.77 0.73 0.70 0.63 0.59 0.60 0.64 0.73 0.68 0.59 0.51 0.53 0.52 0.46 0.32 0.19 0.10 0.06 0.04 0.02 0.03 0.03 0.03 0.04 0.03 0.03 0.07 0.15 0.30 0.32 0.31 0.33 0.29
0.41 0.41 0.44 0.48 0.51 0.62 0.70 0.73 0.81 0.84 0.85 0.82 0.80 0.70 0.68 0.73 0.77 0.87 0.90 0.83 0.75 0.68 0.60 0.47 0.39 0.28 0.15 0.10 0.07 0.05 0.03 0.03 0.04 0.04 0.03 0.03 0.02 0.05 0.11 0.11 0.12 0.13 0.17
0.32 0.34 0.38 0.43 0.45 0.53 0.68 0.80 0.95 1.06 1.03 1.04 0.98 0.85 0.87 1.00 1.12 1.23 1.18 1.18 1.14 0.93 0.77 0.63 0.52 0.42 0.27 0.19 0.14 0.10 0.06 0.05 0.05 0.05 0.04 0.04 0.03 0.02 0.02 0.03 0.07 0.06 0.06
0.22 0.25 0.31 0.34 0.42 0.50 0.58 0.72 0.94 1.21 1.31 1.39 1.34 1.16 1.11 1.22 1.44 1.62 1.55 1.54 1.46 1.25 1.12 1.05 1.09 0.96 0.66 0.35 0.30 0.23 0.13 0.07 0.07 0.07 0.06 0.06 0.05 0.05 0.03 0.01 0.03 0.05 0.04
0.15 0.17 0.22 0.30 0.39 0.48 0.57 0.74 0.90 1.05 1.05 1.21 1.35 1.31 1.22 1.21 1.35 1.48 1.69 1.71 1.57 1.51 1.56 1.53 1.67 1.65 1.16 0.66 0.59 0.60 0.41 0.27 0.13 0.09 0.07 0.06 0.06 0.07 0.05 0.04 0.03 0.03 0.03
0.10 0.12 0.15 0.22 0.32 0.45 0.61 0.84 1.05 1.24 1.32 1.37 1.29 1.36 1.36 1.28 1.31 1.39 1.54 1.67 1.63 1.63 1.65 1.70 1.92 2.16 1.81 1.25 0.90 0.93 0.75 0.64 0.44 0.17 0.09 0.10 0.09 0.07 0.08 0.08 0.07 0.07 0.06
0.08 0.08 0.12 0.20 0.35 0.56 0.77 1.03 1.28 1.49 1.51 1.40 1.45 1.47 1.34 1.26 1.22 1.27 1.40 1.53 1.62 1.60 1.66 1.68 1.70 2.04 2.18 1.82 1.47 1.09 0.81 0.68 0.63 0.48 0.25 0.16 0.17 0.13 0.11 0.11 0.09 0.09 0.10
0.14 0.16 0.23 0.43 0.68 0.93 1.14 1.40 1.69 1.69 1.57 1.48 1.47 1.44 1.38 1.37 1.34 1.33 1.45 1.50 1.50 1.53 1.60 1.83 1.96 2.13 2.19 2.05 1.87 1.65 1.40 1.08 0.69 0.66 0.63 0.41 0.28 0.21 0.17 0.14 0.13 0.13 0.12
0.44 0.58 0.79 1.05 1.24 1.33 1.45 1.60 1.72 1.70 1.71 1.65 1.46 1.37 1.35 1.37 1.42 1.48 1.54 1.51 1.46 1.47 1.55 1.72 1.91 2.06 2.25 2.29 2.05 1.78 1.64 1.43 1.20 1.01 0.77 0.66 0.55 0.38 0.32 0.29 0.23 0.20 0.21